x

Cape Elizabeth- 45nm Nw Of Aberdeen, Wa (46041) Wave Buoy

5:50 - Wed 24th May 2017 All times are PDT. -7 hours from GMT.

  • Sig Wave height 10.2ft
  • Swell Direction
  • Peak Period 9s
  • Average Period 7s
  • Wind
    22mph, 27mph gusts
  • Sea Temp 52°f
  • Ar Temp 51°f
  • Sea Pressure 1019.5mb
  • Cape Elizabeth- 45nm Nw Of Aberdeen, Wa
  • Cape Elizabeth- 45nm Nw Of Aberdeen, Wa

More Historic Weather Station data

Upgrade to MSW Pro to gain access to the past 30 days of data for over 8000 Wavebouys and Weather Stations around the globe.

Join Pro

Comparision Forecast

View Surf forecast
   
Qua 05/24 5:50 10ft 9s 7s 22 27 mph 1019.5mb 52f 51f
4:50 10.5ft 8s 7s 18 25 mph 1019.7mb 52f 52f
3:50 10ft 8s 7s 22 27 mph 1020.1mb 52f 52f
2:50 10ft 9s 7s 22 27 mph 1020.2mb 53f 52f
1:50 11ft 8s 7s 22 29 mph 1020.4mb 53f 52f
12:50 10ft 8s 7s 22 27 mph 1020.9mb 53f 52f
Ter 05/23 11:50 10ft 8s 7s 22 29 mph 1020.7mb 54f 52f
10:50 9.5ft 8s 6s 22 29 mph 1021mb 54f 52f
9:50 9.5ft 8s 6s 25 31 mph 1020.6mb 54f 52f
8:50 8.5ft 13s 6s 27 31 mph 1020.3mb 54f 52f
7:50 8.5ft 11s 6s 27 31 mph 1020.2mb 54f 52f
6:50 8ft 12s 6s 27 34 mph 1020.5mb 55f 53f
5:50 8ft 13s 6s 27 31 mph 1020.5mb 55f 53f
4:50 8ft 11s  -  22 29 mph 1020.4mb 55f 54f
3:50 7ft 11s 6s 27 31 mph 1020.6mb 55f 54f
2:50 7ft 13s 6s 22 27 mph 1020.5mb 55f 54f
1:50 7ft 13s 6s 18 22 mph 1020.1mb 56f 54f
12:50 6.5ft 13s 6s 20 25 mph 1019.7mb 56f 53f
11:50 6ft 11s 6s 16 20 mph 1019.5mb 55f 53f
10:50 6ft 11s 6s 20 22 mph 1019.5mb 55f 53f
9:50 6.5ft 11s 6s 18 22 mph 1019.1mb 55f 53f
8:50 7ft 15s 6s 20 25 mph 1018.9mb 54f 53f
7:50 6ft 15s 6s 18 22 mph 1018.8mb 54f 54f
6:50 6ft 14s 6s 18 22 mph 1018.8mb 54f 54f
5:50 7ft 12s 6s 20 25 mph 1018.8mb 55f 54f
4:50 6.5ft 9s 6s 22 27 mph 1018.9mb 55f 54f
3:50 6.5ft 11s 6s 22 25 mph 1018.6mb 56f 53f
2:50 7ft 10s 7s 18 22 mph 1018.6mb 56f 55f
1:50 6ft 10s 7s 16 18 mph 1018.5mb 56f 55f
12:50 6ft 11s 6s 18 20 mph 1018.5mb 56f 56f
Seg 05/22 11:50 6ft 10s 6s 20 25 mph 1018.2mb 56f 56f
10:50 6ft 9s 6s 20 25 mph 1018.3mb 56f 56f
9:50 6ft 10s 6s 18 20 mph 1018mb 56f 56f
8:50 6ft 10s 5s 18 22 mph 1017.9mb 56f 56f
7:50 6ft 10s 6s 22 27 mph 1017.9mb 56f 57f
6:50 5ft 10s 5s 20 25 mph 1018.4mb 57f 57f
5:50 5.5ft 9s 6s 20 25 mph 1018.9mb 58f 58f
4:50 5ft 10s 6s 20 22 mph 1019.3mb 58f 57f
3:50 5.5ft 10s 7s 16 20 mph 1019.9mb 58f 58f
2:50 5ft 11s 7s 16 18 mph 1020.1mb 58f 58f
1:50 5ft 11s 7s 16 18 mph 1020.2mb 58f 57f
12:50 4.5ft 10s 7s 9 13 mph 1020.4mb 58f 57f
11:50 5ft 10s 7s 4 7 mph 1020.4mb 58f 58f
10:50 4.5ft 10s 7s 4 4 mph 1020.6mb 56f 56f
9:50 4.5ft 10s 6s 7 9 mph 1021.1mb 56f 56f
8:50 4.5ft 10s 6s 9 11 mph 1021.3mb 56f 55f
7:50 5ft 9s 7s 16 18 mph 1021.4mb 56f 55f
6:50 4.5ft 10s 7s 11 13 mph 1021.1mb 56f 55f
5:50 4ft 10s 6s 9 11 mph 1021.1mb 56f 55f
4:50 4.5ft 11s 6s 11 13 mph 1021.1mb 56f 55f
3:50 4.5ft 10s 6s 13 16 mph 1021.5mb 56f 55f
2:50 4ft 10s 6s 13 16 mph 1021.6mb 56f 55f
1:50 4.5ft 10s 6s 13 16 mph 1021.6mb 56f 55f
12:50 4.5ft 11s 5s 13 16 mph 1021.7mb 56f 55f
Dom 05/21 11:50 4ft 11s 5s 18 22 mph 1021.7mb 56f 55f
10:50 4.5ft 11s 4s 18 20 mph 1021.7mb 56f 55f
9:50 4ft 5s 4s 20 22 mph 1021.4mb 56f 53f
8:50 3.5ft 11s 4s 18 20 mph 1021.4mb 57f 55f
7:50 3.5ft 4s 4s 18 20 mph 1021.5mb 56f 56f
6:50 3.5ft 9s 5s 18 20 mph 1021.6mb 56f 54f
5:50 3.5ft 9s 5s 16 20 mph 1022.2mb 56f 53f
4:50 3.5ft 10s 5s 18 20 mph 1023.1mb 56f 53f
3:50 3ft 9s 5s 16 20 mph 1023.5mb 56f 53f
2:50 3.5ft 8s 5s 13 18 mph 1024mb 57f 53f
1:50 3.5ft 9s 5s 13 16 mph 1024.4mb 57f 53f
12:50 3.5ft 8s 5s 13 16 mph 1024.6mb 57f 53f
11:50 3.5ft 11s 5s 13 16 mph 1024.5mb 57f 52f
10:50 4ft 11s 5s 11 13 mph 1024.5mb 56f 52f
9:50 3.5ft 10s 5s 13 16 mph 1024.7mb 56f 51f
8:50 3.5ft 11s 5s 16 18 mph 1024.5mb 56f 52f
7:50 4.5ft 10s 5s 16 18 mph 1024.3mb 56f 51f
6:50 4.5ft 10s  -  16 18 mph 1024.1mb 56f 51f
5:50 4.5ft 9s 6s 16 18 mph 1024.1mb 56f 51f
4:50 5ft 10s 6s 16 20 mph 1024.2mb 56f 51f
3:50 4.5ft 10s 6s 16 18 mph 1024.1mb 56f 51f
2:50 4.5ft 9s 5s 16 20 mph 1024.3mb 56f 51f
1:50 4.5ft 10s 6s 16 20 mph 1024.4mb 56f 52f
12:50 4.5ft 11s 6s 16 20 mph 1024.2mb 56f 52f
Sáb 05/20 11:50 4.5ft 11s 5s 16 20 mph 1023.9mb 56f 52f
10:50 4.5ft 11s 5s 18 22 mph 1023.8mb 56f 52f
9:50 4.5ft 11s 6s 20 25 mph 1023.6mb 57f 51f
8:50 4ft 11s 5s 18 22 mph 1023.2mb 57f 52f
7:50 4ft 11s 5s 16 22 mph 1023.2mb 57f 52f
6:50 4.5ft 11s 6s 18 20 mph 1023.3mb 57f 52f
5:50 4.5ft 11s 6s 16 18 mph 1023.6mb 57f 52f
4:50 4ft 11s 6s 16 18 mph 1024mb 57f 51f
3:50 4.5ft 11s 7s 13 16 mph 1024.3mb 57f 52f
2:50 4ft 12s 6s 11 13 mph 1024.6mb 57f 52f
1:50 4ft 12s 7s 11 16 mph 1024.5mb 57f 53f